Showing default

COSMOS 2459 (GLONASS), 36400

Orbit data source: Space-Track

COSMOS 2459 (GLONASS), 36400 is a Commonwealth of Independent States-origin payload satellite in MEO that was launched on Mon, 01 Mar 2010 UTC via a PROTON-M/DM-2 launch vehicle from the Tyuratam Missile And Space Complex (TTMTR). Payload-class satellites include a variety of spacecraft equipped with specific instruments for various scientific and technological missions. These include communications satellites like Starlink; space stations such as the ISS; scientific satellites like the Hubble; Earth observation satellites from companies like Planet Labs, Umbra, and HawkEye 360; GPS; miniature CubeSats for education and research; and military/defense satellites.

Loading next visibility...
Identifier
36400, 2010-007A
Orbit
MEO
Country
Flag of CISCIS
Related business
Manufacturer
Resehetnev ISS
Mission
Non-operational Defense Navigation
Bus & Motor
URAGAN, Unknown motor
Mass
1,450 kg wet, ~1,200 kg dry
Launch date (UTC)
2010-03-01 (16 years ago)
Launch vehicle
PROTON-M/DM-2
Launch site
Tyuratam Missile And Space Complex (TTMTR)
Object type
Payload
Rocket body
Debris
Shape & HBR
Cyl + 1 Ant + 2 Pan, 3.9 m
Radar Cross Section
8.467 m², Large (>1 m²)

Expand to show TLE details & history
Last TLE update: 4 days ago

TLE from 4 days ago
0 COSMOS 2459 (GLONASS)
1 36400U 10007A   26030.27856994 -.00000067  00000-0  00000-0 0  9996
2 36400  65.5204 319.2460 0026789 346.0108 192.7480  2.13116678123884
Epoch: 2026-01-30T06:41Z
TLE epoch observation values (Epoch: 2026-01-30T06:41:08.442Z)
Latitude
1.15345°
Longitude
-91.09277°
Altitude
19,195.896 km
Speed
3.943 km/s
True Right ascension
09h 14m 50s
True Declination
1° 09' 06"
Sunlit
Object was in daylight at epoch
Visualization orbit readout
Latitude
Unknown
Longitude
Unknown
Altitude
Unknown
Speed
Unknown
Apparent Right ascension
Unknown
Apparent Declination
Unknown
Sunlit
N/A
Visualization observer readout
Local Sidereal Time
13:03:38
Azimuth
Unknown
Elevation
Unknown
Doppler factor
Unknown
Orbital elements
Apogee altitude
19,196.642 km
Perigee altitude
19,059.984 km
Semi-major axis
25,506.45 km
Eccentricity
0.00268
Inclination
65.5204°
RAAN
319.246°
Arg. of periapsis
346.0108°
True anomaly
192.68048°
Mean anomaly
192.748°
Eccentric anomaly
192.71422°
Mean motion
0.5328 °/min
Orbital period
675.67 mins
BSTAR
0
Loading maneuver chart data...
Computing Atmospheric mass density...
Loading historical data...
Loading historical data...
Loading historical data...
Loading historical data...
Loading historical data...
Loading historical data...
Loading historical data...

Documentation

Showing up to 5 results
|